QPF
0.02 0.02 0.01 0.01 0.00 0.00 0.00 0.00 0.00 0.00 0.00 0.00 0.00 0.00 0.00 0.00 0.00 0.01 0.00 0.00 0.00 0.00 0.00 0.01 0.01 0.01 0.01 0.02 0.02 0.01 0.01 0.01 0.00 0.00 0.00 0.01 0.00 0.00 0.00 0.00 0.00 0.00 0.01
0.02 0.02 0.01 0.01 0.01 0.01 0.01 0.01 0.00 0.00 0.00 0.00 0.00 0.00 0.00 0.01 0.01 0.01 0.00 0.00 0.00 0.00 0.00 0.01 0.01 0.01 0.02 0.02 0.01 0.01 0.01 0.01 0.01 0.01 0.01 0.00 0.00 0.01 0.00 0.00 0.00 0.01 0.01
0.02 0.02 0.02 0.01 0.01 0.01 0.01 0.01 0.01 0.01 0.01 0.01 0.00 0.00 0.00 0.01 0.01 0.01 0.01 0.00 0.00 0.00 0.00 0.01 0.01 0.01 0.02 0.02 0.02 0.02 0.02 0.02 0.02 0.01 0.01 0.01 0.01 0.01 0.01 0.00 0.01 0.01 0.01
0.03 0.04 0.03 0.02 0.02 0.01 0.02 0.02 0.02 0.02 0.02 0.02 0.01 0.01 0.02 0.02 0.01 0.01 0.01 0.00 0.01 0.01 0.00 0.00 0.00 0.01 0.01 0.02 0.02 0.02 0.02 0.03 0.02 0.02 0.02 0.02 0.02 0.01 0.01 0.01 0.01 0.01 0.01
0.05 0.06 0.04 0.03 0.02 0.02 0.02 0.03 0.02 0.03 0.03 0.03 0.03 0.03 0.03 0.03 0.02 0.01 0.01 0.00 0.00 0.00 0.00 0.00 0.00 0.00 0.00 0.01 0.01 0.01 0.02 0.02 0.02 0.02 0.02 0.02 0.03 0.02 0.02 0.02 0.01 0.01 0.01
0.04 0.04 0.03 0.02 0.02 0.03 0.03 0.03 0.03 0.03 0.04 0.05 0.05 0.04 0.04 0.02 0.02 0.01 0.00 0.00 0.00 0.00 0.00 0.00 0.00 0.00 0.00 0.00 0.01 0.00 0.01 0.01 0.02 0.01 0.01 0.02 0.02 0.03 0.04 0.05 0.04 0.03 0.03
0.02 0.02 0.02 0.02 0.02 0.02 0.02 0.03 0.03 0.04 0.05 0.06 0.06 0.05 0.04 0.02 0.01 0.01 0.00 0.00 0.00 0.00 0.00 0.00 0.00 0.00 0.00 0.00 0.00 0.00 0.01 0.01 0.02 0.02 0.01 0.02 0.02 0.02 0.03 0.05 0.06 0.06 0.06
0.02 0.03 0.03 0.02 0.02 0.03 0.03 0.04 0.06 0.08 0.08 0.08 0.08 0.06 0.04 0.02 0.01 0.01 0.00 0.00 0.00 0.00 0.00 0.00 0.00 0.00 0.01 0.00 0.00 0.00 0.00 0.01 0.01 0.02 0.02 0.02 0.03 0.03 0.04 0.05 0.06 0.07 0.08
0.04 0.04 0.04 0.05 0.05 0.05 0.06 0.07 0.10 0.10 0.10 0.10 0.09 0.09 0.06 0.04 0.02 0.01 0.00 0.00 0.00 0.00 0.00 0.00 0.00 0.00 0.00 0.00 0.00 0.00 0.00 0.00 0.01 0.02 0.03 0.04 0.04 0.04 0.05 0.06 0.06 0.07 0.08
0.06 0.06 0.06 0.07 0.07 0.07 0.07 0.09 0.13 0.14 0.14 0.14 0.12 0.11 0.08 0.06 0.05 0.03 0.01 0.01 0.00 0.00 0.00 0.00 0.00 0.00 0.00 0.00 0.00 0.00 0.00 0.00 0.01 0.01 0.02 0.03 0.04 0.05 0.06 0.07 0.06 0.06 0.06
0.07 0.09 0.08 0.07 0.08 0.08 0.07 0.08 0.11 0.15 0.16 0.16 0.14 0.12 0.10 0.09 0.08 0.05 0.03 0.02 0.01 0.00 0.00 0.00 0.00 0.00 0.00 0.00 0.00 0.00 0.00 0.00 0.01 0.01 0.02 0.03 0.04 0.04 0.05 0.06 0.05 0.06 0.05
0.07 0.07 0.08 0.07 0.08 0.08 0.09 0.10 0.12 0.14 0.14 0.15 0.14 0.12 0.10 0.09 0.08 0.06 0.04 0.03 0.02 0.01 0.01 0.00 0.00 0.00 0.00 0.00 0.00 0.00 0.00 0.00 0.00 0.01 0.03 0.03 0.02 0.03 0.04 0.04 0.04 0.04 0.05
0.12 0.11 0.11 0.10 0.09 0.08 0.08 0.10 0.13 0.13 0.12 0.11 0.11 0.11 0.10 0.09 0.07 0.07 0.07 0.05 0.04 0.03 0.02 0.01 0.00 0.00 0.00 0.00 0.00 0.01 0.00 0.00 0.00 0.01 0.03 0.02 0.01 0.02 0.03 0.03 0.03 0.03 0.05
0.12 0.12 0.12 0.13 0.13 0.12 0.11 0.11 0.13 0.13 0.12 0.12 0.11 0.10 0.10 0.09 0.08 0.08 0.07 0.06 0.05 0.04 0.02 0.01 0.01 0.00 0.00 0.00 0.01 0.01 0.00 0.00 0.01 0.01 0.01 0.01 0.02 0.02 0.02 0.02 0.02 0.03 0.03
0.11 0.10 0.10 0.11 0.11 0.11 0.12 0.12 0.12 0.11 0.11 0.11 0.11 0.10 0.09 0.09 0.08 0.08 0.07 0.06 0.05 0.04 0.02 0.01 0.01 0.00 0.00 0.00 0.00 0.00 0.00 0.01 0.01 0.01 0.01 0.01 0.02 0.02 0.02 0.02 0.02 0.01 0.02
0.10 0.09 0.08 0.07 0.08 0.09 0.11 0.12 0.12 0.11 0.12 0.12 0.12 0.11 0.10 0.09 0.07 0.06 0.06 0.05 0.04 0.03 0.02 0.01 0.01 0.01 0.01 0.01 0.01 0.01 0.01 0.02 0.01 0.01 0.01 0.01 0.02 0.03 0.02 0.01 0.01 0.01 0.03
0.09 0.09 0.09 0.09 0.08 0.09 0.10 0.12 0.13 0.13 0.13 0.13 0.12 0.11 0.10 0.09 0.07 0.05 0.05 0.04 0.04 0.04 0.04 0.03 0.02 0.02 0.02 0.02 0.02 0.02 0.02 0.02 0.02 0.02 0.02 0.01 0.01 0.02 0.02 0.01 0.01 0.01 0.02
0.09 0.08 0.08 0.08 0.08 0.09 0.09 0.11 0.12 0.12 0.12 0.11 0.10 0.10 0.10 0.10 0.08 0.05 0.04 0.04 0.04 0.04 0.04 0.03 0.03 0.02 0.02 0.02 0.02 0.02 0.02 0.02 0.03 0.03 0.02 0.01 0.01 0.01 0.01 0.01 0.01 0.01 0.01
0.09 0.09 0.09 0.08 0.08 0.08 0.09 0.10 0.11 0.11 0.11 0.11 0.10 0.09 0.09 0.08 0.07 0.05 0.04 0.03 0.03 0.03 0.03 0.03 0.03 0.02 0.02 0.01 0.01 0.01 0.01 0.02 0.02 0.02 0.01 0.01 0.01 0.01 0.01 0.01 0.01 0.01 0.01
0.07 0.07 0.09 0.11 0.10 0.10 0.11 0.12 0.12 0.12 0.12 0.11 0.10 0.08 0.07 0.05 0.05 0.04 0.04 0.03 0.03 0.03 0.03 0.03 0.02 0.01 0.01 0.01 0.01 0.01 0.01 0.01 0.01 0.01 0.01 0.01 0.01 0.01 0.01 0.01 0.02 0.02 0.02
0.06 0.08 0.09 0.10 0.12 0.13 0.13 0.12 0.12 0.11 0.11 0.11 0.11 0.10 0.07 0.06 0.05 0.04 0.03 0.03 0.02 0.02 0.02 0.02 0.02 0.01 0.01 0.01 0.01 0.01 0.02 0.02 0.02 0.01 0.01 0.01 0.01 0.00 0.01 0.01 0.02 0.03 0.04
0.05 0.07 0.09 0.10 0.11 0.13 0.16 0.15 0.14 0.13 0.12 0.11 0.10 0.09 0.08 0.07 0.06 0.04 0.03 0.02 0.02 0.02 0.02 0.02 0.02 0.02 0.02 0.02 0.02 0.02 0.01 0.02 0.02 0.02 0.02 0.02 0.01 0.00 0.00 0.00 0.01 0.02 0.03
0.05 0.06 0.08 0.11 0.12 0.14 0.16 0.16 0.15 0.12 0.11 0.09 0.08 0.07 0.07 0.06 0.04 0.03 0.03 0.02 0.02 0.01 0.01 0.01 0.01 0.01 0.01 0.01 0.02 0.02 0.02 0.02 0.01 0.02 0.02 0.02 0.01 0.01 0.00 0.00 0.01 0.01 0.01
0.03 0.04 0.04 0.06 0.08 0.10 0.13 0.14 0.13 0.09 0.07 0.06 0.05 0.04 0.04 0.03 0.02 0.02 0.02 0.01 0.01 0.00 0.00 0.00 0.00 0.01 0.01 0.01 0.01 0.01 0.02 0.01 0.01 0.01 0.01 0.01 0.01 0.01 0.00 0.00 0.01 0.01 0.01
0.03 0.03 0.04 0.05 0.06 0.07 0.08 0.09 0.10 0.07 0.05 0.04 0.04 0.04 0.03 0.03 0.02 0.02 0.01 0.01 0.00 0.00 0.00 0.00 0.00 0.00 0.01 0.01 0.01 0.01 0.01 0.01 0.01 0.01 0.01 0.01 0.00 0.00 0.00 0.00 0.00 0.00 0.00
0.03 0.03 0.04 0.04 0.05 0.05 0.06 0.06 0.06 0.05 0.04 0.03 0.03 0.03 0.03 0.02 0.02 0.01 0.01 0.00 0.00 0.00 0.00 0.00 0.00 0.00 0.00 0.00 0.01 0.01 0.01 0.01 0.01 0.01 0.01 0.00 0.00 0.00 0.00 0.00 0.00 0.00 0.00
MSLP
1015.07 1015.55 1015.94 1016.28 1016.61 1016.95 1017.32 1017.70 1018.05 1018.34 1018.54 1018.65 1018.68 1018.67 1018.66 1018.69 1018.79 1018.96 1019.19 1019.45 1019.70 1019.90 1020.04 1020.11 1020.14 1020.14 1020.16 1020.20 1020.28 1020.40 1020.53 1020.65 1020.75 1020.82 1020.85 1020.85 1020.84 1020.83 1020.83 1020.83 1020.84 1020.84 1020.83
1014.78 1015.26 1015.64 1015.98 1016.30 1016.65 1017.03 1017.42 1017.80 1018.11 1018.35 1018.49 1018.54 1018.54 1018.52 1018.54 1018.61 1018.75 1018.96 1019.19 1019.43 1019.64 1019.81 1019.92 1020.00 1020.06 1020.12 1020.21 1020.32 1020.45 1020.59 1020.72 1020.82 1020.88 1020.91 1020.90 1020.88 1020.86 1020.84 1020.83 1020.83 1020.83 1020.82
1014.41 1014.88 1015.27 1015.61 1015.95 1016.31 1016.71 1017.14 1017.55 1017.91 1018.18 1018.36 1018.45 1018.47 1018.46 1018.47 1018.51 1018.62 1018.79 1018.99 1019.22 1019.43 1019.61 1019.76 1019.89 1020.00 1020.11 1020.25 1020.39 1020.55 1020.70 1020.83 1020.93 1020.98 1020.99 1020.97 1020.93 1020.88 1020.83 1020.79 1020.76 1020.73 1020.71
1013.99 1014.45 1014.84 1015.20 1015.57 1015.96 1016.40 1016.86 1017.32 1017.73 1018.06 1018.29 1018.42 1018.47 1018.49 1018.49 1018.52 1018.60 1018.74 1018.91 1019.11 1019.31 1019.50 1019.68 1019.84 1020.00 1020.16 1020.33 1020.51 1020.68 1020.84 1020.98 1021.07 1021.11 1021.10 1021.06 1020.98 1020.90 1020.81 1020.72 1020.65 1020.58 1020.52
1013.54 1014.00 1014.41 1014.79 1015.19 1015.62 1016.10 1016.60 1017.10 1017.57 1017.95 1018.24 1018.43 1018.54 1018.59 1018.61 1018.65 1018.71 1018.82 1018.97 1019.14 1019.33 1019.52 1019.71 1019.89 1020.07 1020.26 1020.46 1020.65 1020.83 1021.00 1021.13 1021.20 1021.23 1021.21 1021.15 1021.05 1020.93 1020.79 1020.66 1020.53 1020.40 1020.28
1013.10 1013.56 1013.99 1014.40 1014.83 1015.30 1015.81 1016.35 1016.90 1017.41 1017.85 1018.21 1018.46 1018.63 1018.73 1018.80 1018.86 1018.93 1019.03 1019.16 1019.32 1019.49 1019.67 1019.86 1020.04 1020.23 1020.43 1020.63 1020.82 1021.00 1021.15 1021.27 1021.33 1021.35 1021.31 1021.24 1021.12 1020.97 1020.81 1020.62 1020.43 1020.24 1020.06
1012.70 1013.17 1013.61 1014.05 1014.51 1015.01 1015.55 1016.11 1016.69 1017.23 1017.73 1018.14 1018.46 1018.70 1018.87 1019.00 1019.10 1019.21 1019.32 1019.45 1019.60 1019.76 1019.93 1020.11 1020.29 1020.47 1020.66 1020.84 1021.01 1021.17 1021.30 1021.39 1021.44 1021.45 1021.41 1021.33 1021.21 1021.05 1020.86 1020.64 1020.40 1020.15 1019.90
1012.36 1012.83 1013.28 1013.74 1014.22 1014.74 1015.29 1015.87 1016.45 1017.02 1017.54 1018.00 1018.39 1018.70 1018.95 1019.15 1019.32 1019.47 1019.62 1019.78 1019.93 1020.09 1020.26 1020.42 1020.59 1020.75 1020.92 1021.07 1021.22 1021.34 1021.44 1021.51 1021.54 1021.54 1021.50 1021.43 1021.32 1021.17 1020.97 1020.73 1020.45 1020.15 1019.83
1012.08 1012.55 1013.01 1013.49 1013.98 1014.49 1015.03 1015.60 1016.17 1016.73 1017.27 1017.76 1018.20 1018.58 1018.91 1019.19 1019.44 1019.66 1019.86 1020.06 1020.24 1020.42 1020.59 1020.75 1020.91 1021.06 1021.20 1021.33 1021.44 1021.53 1021.59 1021.63 1021.65 1021.64 1021.61 1021.56 1021.47 1021.34 1021.16 1020.91 1020.61 1020.25 1019.86
1011.82 1012.30 1012.78 1013.26 1013.75 1014.25 1014.76 1015.29 1015.83 1016.37 1016.90 1017.41 1017.88 1018.32 1018.72 1019.09 1019.41 1019.71 1019.98 1020.23 1020.45 1020.66 1020.86 1021.04 1021.21 1021.36 1021.49 1021.60 1021.68 1021.74 1021.77 1021.79 1021.79 1021.79 1021.77 1021.73 1021.67 1021.57 1021.41 1021.17 1020.84 1020.44 1019.99
1011.57 1012.06 1012.55 1013.03 1013.51 1013.98 1014.46 1014.94 1015.43 1015.93 1016.44 1016.94 1017.44 1017.92 1018.39 1018.82 1019.23 1019.60 1019.94 1020.25 1020.54 1020.80 1021.04 1021.26 1021.46 1021.63 1021.77 1021.88 1021.95 1021.99 1022.01 1022.01 1022.00 1021.99 1021.98 1021.96 1021.93 1021.85 1021.70 1021.47 1021.13 1020.68 1020.16
1011.25 1011.77 1012.28 1012.77 1013.23 1013.67 1014.10 1014.53 1014.97 1015.42 1015.90 1016.39 1016.90 1017.41 1017.92 1018.42 1018.89 1019.34 1019.75 1020.13 1020.48 1020.81 1021.11 1021.39 1021.64 1021.86 1022.04 1022.17 1022.26 1022.30 1022.31 1022.30 1022.28 1022.26 1022.26 1022.25 1022.23 1022.16 1022.03 1021.79 1021.43 1020.93 1020.34
1010.84 1011.40 1011.93 1012.42 1012.87 1013.29 1013.68 1014.06 1014.45 1014.86 1015.31 1015.79 1016.31 1016.84 1017.39 1017.94 1018.47 1018.97 1019.45 1019.90 1020.32 1020.72 1021.10 1021.45 1021.77 1022.06 1022.29 1022.47 1022.59 1022.66 1022.68 1022.66 1022.64 1022.62 1022.60 1022.59 1022.57 1022.51 1022.36 1022.11 1021.71 1021.17 1020.50
1010.30 1010.90 1011.47 1011.98 1012.44 1012.84 1013.21 1013.55 1013.91 1014.29 1014.72 1015.20 1015.72 1016.28 1016.86 1017.45 1018.02 1018.58 1019.11 1019.61 1020.10 1020.57 1021.02 1021.45 1021.86 1022.22 1022.53 1022.78 1022.95 1023.05 1023.09 1023.08 1023.05 1023.02 1022.99 1022.97 1022.94 1022.86 1022.70 1022.42 1021.99 1021.40 1020.67
1009.63 1010.29 1010.91 1011.45 1011.93 1012.34 1012.70 1013.04 1013.39 1013.76 1014.19 1014.68 1015.22 1015.80 1016.41 1017.03 1017.64 1018.23 1018.80 1019.35 1019.88 1020.41 1020.92 1021.43 1021.91 1022.36 1022.75 1023.06 1023.29 1023.44 1023.51 1023.52 1023.49 1023.45 1023.41 1023.37 1023.31 1023.21 1023.03 1022.72 1022.26 1021.64 1020.86
1008.87 1009.60 1010.27 1010.86 1011.38 1011.81 1012.20 1012.56 1012.92 1013.32 1013.78 1014.29 1014.86 1015.47 1016.11 1016.75 1017.39 1018.00 1018.59 1019.16 1019.72 1020.28 1020.84 1021.40 1021.95 1022.46 1022.91 1023.30 1023.59 1023.78 1023.89 1023.93 1023.91 1023.87 1023.82 1023.76 1023.68 1023.56 1023.35 1023.03 1022.56 1021.92 1021.13
1008.10 1008.89 1009.62 1010.27 1010.84 1011.33 1011.76 1012.16 1012.57 1013.01 1013.51 1014.07 1014.68 1015.33 1016.00 1016.66 1017.31 1017.92 1018.51 1019.08 1019.64 1020.21 1020.79 1021.38 1021.96 1022.51 1023.02 1023.45 1023.79 1024.04 1024.19 1024.25 1024.26 1024.23 1024.18 1024.12 1024.03 1023.90 1023.69 1023.38 1022.91 1022.30 1021.53
1007.40 1008.25 1009.04 1009.75 1010.38 1010.93 1011.42 1011.89 1012.36 1012.86 1013.42 1014.03 1014.69 1015.38 1016.07 1016.75 1017.40 1018.00 1018.58 1019.12 1019.66 1020.21 1020.78 1021.35 1021.94 1022.51 1023.04 1023.51 1023.89 1024.17 1024.36 1024.47 1024.51 1024.51 1024.47 1024.42 1024.35 1024.23 1024.04 1023.75 1023.33 1022.76 1022.06
1006.87 1007.76 1008.60 1009.37 1010.06 1010.67 1011.22 1011.76 1012.30 1012.87 1013.49 1014.16 1014.87 1015.59 1016.30 1016.99 1017.63 1018.21 1018.75 1019.26 1019.75 1020.26 1020.78 1021.32 1021.88 1022.44 1022.97 1023.45 1023.85 1024.17 1024.40 1024.55 1024.64 1024.67 1024.68 1024.66 1024.62 1024.53 1024.38 1024.14 1023.79 1023.31 1022.70
1006.58 1007.48 1008.35 1009.16 1009.89 1010.55 1011.17 1011.77 1012.37 1013.01 1013.69 1014.41 1015.15 1015.90 1016.63 1017.31 1017.94 1018.49 1018.99 1019.45 1019.88 1020.33 1020.79 1021.27 1021.79 1022.31 1022.82 1023.29 1023.71 1024.05 1024.32 1024.52 1024.65 1024.74 1024.79 1024.83 1024.83 1024.80 1024.70 1024.53 1024.26 1023.88 1023.39
1006.53 1007.43 1008.31 1009.13 1009.89 1010.59 1011.24 1011.89 1012.54 1013.22 1013.95 1014.71 1015.48 1016.25 1016.98 1017.66 1018.26 1018.78 1019.24 1019.64 1020.02 1020.39 1020.79 1021.21 1021.66 1022.13 1022.60 1023.06 1023.47 1023.84 1024.14 1024.38 1024.57 1024.72 1024.84 1024.93 1024.99 1025.01 1024.99 1024.89 1024.70 1024.43 1024.07
1006.72 1007.59 1008.44 1009.25 1010.01 1010.72 1011.40 1012.07 1012.75 1013.47 1014.22 1015.00 1015.79 1016.56 1017.29 1017.96 1018.54 1019.03 1019.45 1019.81 1020.13 1020.45 1020.78 1021.14 1021.53 1021.94 1022.37 1022.80 1023.21 1023.58 1023.91 1024.20 1024.44 1024.65 1024.83 1024.98 1025.10 1025.18 1025.21 1025.18 1025.08 1024.91 1024.66
1007.09 1007.90 1008.71 1009.48 1010.22 1010.91 1011.59 1012.26 1012.95 1013.68 1014.44 1015.23 1016.02 1016.79 1017.52 1018.17 1018.74 1019.22 1019.61 1019.94 1020.22 1020.50 1020.78 1021.08 1021.42 1021.79 1022.18 1022.58 1022.98 1023.35 1023.71 1024.03 1024.31 1024.57 1024.80 1025.00 1025.17 1025.30 1025.39 1025.41 1025.38 1025.28 1025.12
1007.55 1008.29 1009.04 1009.76 1010.45 1011.11 1011.76 1012.42 1013.11 1013.83 1014.58 1015.36 1016.15 1016.92 1017.64 1018.29 1018.85 1019.32 1019.71 1020.02 1020.30 1020.55 1020.80 1021.07 1021.38 1021.71 1022.07 1022.44 1022.83 1023.20 1023.57 1023.91 1024.23 1024.52 1024.79 1025.03 1025.24 1025.40 1025.52 1025.58 1025.59 1025.55 1025.46
1008.02 1008.69 1009.36 1010.02 1010.66 1011.28 1011.90 1012.53 1013.20 1013.91 1014.65 1015.42 1016.20 1016.96 1017.67 1018.32 1018.89 1019.36 1019.76 1020.09 1020.37 1020.62 1020.87 1021.13 1021.42 1021.73 1022.07 1022.42 1022.79 1023.16 1023.53 1023.88 1024.22 1024.53 1024.82 1025.08 1025.31 1025.49 1025.63 1025.71 1025.75 1025.75 1025.70
1008.44 1009.03 1009.64 1010.24 1010.82 1011.40 1011.99 1012.60 1013.25 1013.94 1014.67 1015.42 1016.19 1016.94 1017.65 1018.31 1018.88 1019.38 1019.80 1020.15 1020.45 1020.73 1020.99 1021.26 1021.55 1021.85 1022.17 1022.52 1022.87 1023.23 1023.59 1023.94 1024.28 1024.60 1024.90 1025.17 1025.40 1025.59 1025.74 1025.83 1025.88 1025.90 1025.88
Thickness
5696 5694 5693 5691 5690 5690 5689 5688 5688 5688 5688 5688 5687 5686 5685 5684 5683 5682 5679 5677 5674 5672 5670 5668 5666 5665 5663 5661 5659 5657 5655 5652 5650 5647 5645 5642 5639 5637 5634 5632 5629 5626 5623
5692 5690 5689 5688 5688 5687 5686 5685 5685 5685 5685 5684 5683 5682 5681 5680 5679 5677 5675 5672 5670 5667 5665 5663 5662 5660 5658 5656 5654 5652 5650 5647 5645 5642 5639 5637 5634 5632 5629 5626 5623 5620 5618
5687 5686 5685 5684 5684 5683 5682 5681 5681 5681 5680 5679 5678 5677 5676 5675 5674 5672 5669 5667 5664 5662 5660 5658 5656 5655 5653 5651 5648 5646 5644 5641 5639 5636 5634 5631 5628 5626 5623 5620 5618 5615 5612
5682 5681 5680 5679 5679 5678 5678 5676 5676 5675 5673 5672 5671 5671 5670 5669 5668 5666 5664 5662 5659 5656 5654 5652 5650 5648 5646 5644 5642 5640 5637 5635 5633 5630 5628 5625 5622 5620 5617 5614 5612 5609 5606
5676 5675 5675 5674 5674 5674 5673 5672 5670 5669 5666 5665 5664 5664 5663 5662 5661 5659 5657 5656 5654 5651 5648 5646 5643 5641 5639 5637 5635 5633 5631 5628 5626 5623 5621 5619 5616 5613 5611 5608 5605 5603 5600
5671 5670 5670 5670 5669 5668 5667 5666 5664 5663 5661 5659 5658 5656 5656 5655 5654 5652 5650 5649 5647 5644 5642 5639 5636 5634 5632 5629 5627 5625 5623 5621 5619 5616 5614 5612 5610 5607 5605 5602 5599 5596 5594
5665 5665 5665 5664 5664 5662 5661 5660 5658 5656 5654 5653 5649 5646 5647 5648 5646 5645 5643 5641 5639 5636 5634 5632 5629 5627 5624 5621 5619 5617 5615 5613 5611 5609 5607 5604 5602 5600 5598 5595 5593 5591 5588
5660 5660 5659 5658 5658 5657 5655 5654 5652 5649 5648 5647 5642 5637 5634 5635 5637 5638 5635 5633 5631 5628 5626 5623 5621 5618 5616 5613 5610 5608 5606 5604 5602 5600 5598 5596 5594 5593 5591 5588 5586 5584 5582
5653 5654 5653 5652 5652 5650 5648 5648 5647 5644 5641 5640 5639 5634 5629 5627 5626 5627 5626 5624 5622 5619 5617 5614 5612 5609 5606 5603 5600 5598 5596 5594 5592 5591 5590 5588 5586 5584 5583 5581 5579 5576 5575
5646 5646 5646 5645 5644 5643 5642 5642 5641 5639 5636 5633 5631 5631 5629 5627 5620 5615 5615 5614 5613 5610 5608 5605 5602 5599 5596 5593 5591 5588 5586 5584 5583 5581 5580 5578 5577 5576 5574 5573 5571 5569 5568
5638 5638 5638 5637 5636 5635 5635 5634 5633 5632 5630 5628 5626 5624 5621 5618 5616 5610 5606 5603 5601 5600 5599 5596 5593 5589 5586 5583 5581 5578 5576 5574 5573 5571 5570 5569 5567 5566 5565 5564 5563 5561 5560
5628 5629 5629 5628 5628 5627 5626 5625 5624 5623 5622 5620 5618 5617 5614 5610 5607 5604 5601 5596 5592 5590 5588 5585 5582 5579 5576 5573 5571 5568 5566 5564 5562 5561 5560 5558 5557 5555 5554 5553 5553 5552 5551
5619 5619 5619 5619 5619 5618 5617 5616 5614 5613 5612 5611 5609 5608 5606 5604 5602 5598 5594 5590 5586 5581 5577 5574 5572 5569 5566 5563 5561 5558 5556 5553 5552 5550 5549 5547 5546 5544 5543 5542 5542 5542 5541
5611 5611 5611 5610 5610 5609 5608 5606 5605 5603 5602 5601 5601 5599 5597 5595 5593 5591 5587 5582 5577 5572 5568 5565 5561 5559 5556 5553 5551 5548 5545 5543 5541 5539 5537 5536 5534 5533 5532 5531 5531 5531 5532
5603 5603 5602 5601 5601 5600 5599 5597 5594 5593 5592 5591 5591 5590 5587 5585 5582 5581 5578 5575 5570 5565 5561 5556 5551 5548 5545 5542 5540 5537 5535 5533 5530 5528 5526 5525 5524 5522 5521 5521 5520 5521 5522
5594 5593 5592 5591 5591 5589 5588 5585 5584 5583 5581 5581 5581 5580 5578 5574 5572 5570 5567 5564 5561 5558 5553 5548 5542 5538 5535 5532 5528 5526 5524 5522 5519 5517 5515 5514 5513 5511 5510 5510 5510 5511 5512
5583 5582 5580 5579 5578 5577 5576 5574 5573 5573 5571 5570 5570 5569 5566 5564 5561 5558 5555 5552 5549 5546 5541 5535 5530 5527 5524 5520 5517 5515 5513 5511 5508 5506 5505 5503 5502 5501 5500 5499 5499 5500 5501
5571 5570 5568 5567 5565 5564 5563 5562 5562 5562 5561 5560 5559 5557 5555 5552 5550 5547 5544 5541 5538 5536 5531 5525 5519 5515 5513 5510 5507 5505 5502 5500 5497 5496 5494 5493 5492 5491 5490 5489 5489 5490 5491
5558 5557 5555 5554 5553 5552 5551 5551 5551 5551 5550 5549 5548 5546 5544 5540 5537 5534 5532 5529 5526 5524 5521 5516 5510 5505 5502 5499 5496 5494 5491 5489 5487 5486 5484 5483 5482 5481 5480 5479 5479 5480 5481
5544 5543 5543 5542 5541 5541 5540 5539 5539 5539 5537 5536 5535 5534 5531 5528 5526 5522 5519 5517 5514 5511 5508 5505 5501 5497 5492 5489 5486 5483 5480 5478 5477 5476 5474 5473 5472 5470 5470 5469 5469 5469 5470
5531 5530 5530 5529 5529 5528 5529 5528 5527 5527 5525 5523 5521 5519 5517 5516 5514 5511 5508 5505 5503 5500 5497 5494 5491 5487 5483 5479 5477 5474 5471 5468 5467 5466 5464 5463 5462 5461 5460 5459 5458 5459 5460
5517 5516 5516 5516 5516 5516 5516 5516 5514 5512 5511 5509 5506 5504 5503 5501 5501 5499 5496 5495 5493 5490 5487 5484 5481 5478 5476 5473 5469 5466 5462 5459 5457 5456 5455 5452 5452 5451 5450 5449 5449 5449 5450
5504 5503 5503 5503 5503 5503 5504 5503 5501 5499 5498 5496 5493 5492 5491 5489 5487 5485 5484 5483 5481 5480 5479 5477 5473 5471 5468 5466 5462 5458 5454 5452 5450 5448 5446 5443 5442 5441 5441 5440 5440 5440 5441
5492 5491 5490 5490 5490 5490 5490 5490 5488 5487 5485 5484 5483 5482 5480 5477 5476 5474 5472 5469 5468 5467 5467 5466 5464 5462 5461 5459 5455 5452 5448 5443 5440 5439 5438 5434 5433 5432 5432 5432 5432 5432 5433
5479 5478 5478 5477 5477 5477 5478 5478 5477 5475 5473 5472 5471 5469 5468 5467 5466 5465 5462 5458 5456 5455 5455 5455 5454 5453 5451 5449 5446 5442 5438 5434 5430 5429 5429 5427 5425 5424 5423 5424 5425 5425 5425
5467 5466 5465 5465 5465 5465 5466 5466 5466 5464 5462 5461 5460 5459 5458 5457 5456 5455 5452 5449 5446 5444 5444 5443 5442 5441 5440 5438 5436 5434 5431 5427 5424 5421 5421 5420 5417 5416 5414 5415 5416 5417 5417